Change the Weather History Date:

Saturday, May 11, 2013

  Actual Average (KCOF) Record (KCOF)
Temperature  
Mean Temperature 78 °F -  
Max Temperature 86 °F 80 °F 94 °F (2011)
Min Temperature 71 °F 69 °F 68 °F (2000)
Cooling Degree Days 14    
Growing Degree Days 28 (Base 50)    
Moisture  
Dew Point 71 °F    
Average Humidity 83    
Maximum Humidity 95    
Minimum Humidity 62    
Precipitation  
Precipitation 0.31 in - - ()
Sea Level Pressure  
Sea Level Pressure 30.02 in    
Wind  
Wind Speed 8 mph (SSW)    
Max Wind Speed 22 mph    
Max Gust Speed 33 mph    
Visibility 9 miles    
Events Rain , Thunderstorm    
Averages and records for this station are not official NWS values.
T = Trace of Precipitation, MM = Missing Value Source: NWS Daily Summary

Daily Weather History Graph

Daily Weather History Graph

Search for Another Location

Airport or City:

Trip Planner

Search our weather history database for the weather conditions in past years. The results will help you decide how hot, cold, wet, or windy it might be!

Date:

Astronomy

May. 11, 2013 Rise Set
Actual Time 6:34 AM EDT 8:03 PM EDT
Civil Twilight 6:08 AM EDT 8:29 PM EDT
Nautical Twilight 5:38 AM EDT 8:59 PM EDT
Astronomical Twilight 5:06 AM EDT 9:31 PM EDT
Moon 7:43 AM EDT (5/11) 9:39 PM EDT (5/11)
Length of Visible Light 14h 20m
Length of Day
13h 29m
Waxing Crescent, 3% of the Moon is Illuminated
May 11
Waxing Crescent
May 18
First Quarter
May 25
Full
May 31
Last Quarter
Jun 8
New

Hourly Weather History & Observations

Time (EDT) Temp. Heat Index Dew Point Humidity Pressure Visibility Wind Dir Wind Speed Gust Speed Precip Events Conditions
12:58 AM 73.2 °F - 68.4 °F 85% 30.07 in 10.0 mi SSW 8.1 mph - N/A   Partly Cloudy
1:58 AM 73.0 °F - 66.7 °F 81% 30.07 in 10.0 mi SSW 3.5 mph - N/A   Mostly Cloudy
2:58 AM 72.9 °F - 67.8 °F 84% 30.04 in 10.0 mi South 8.1 mph - N/A   Partly Cloudy
3:58 AM 73.2 °F - 69.4 °F 88% 30.03 in 10.0 mi SSW 6.9 mph - N/A   Clear
4:58 AM 73.0 °F - 69.6 °F 89% 30.02 in 10.0 mi SSW 5.8 mph - N/A   Clear
5:58 AM 71.4 °F - 68.9 °F 92% 30.03 in 10.0 mi SSW 4.6 mph - N/A   Clear
6:58 AM 71.2 °F - 69.1 °F 93% 30.05 in 10.0 mi SSW 4.6 mph - N/A   Clear
7:58 AM 75.0 °F - 70.0 °F 84% 30.06 in 10.0 mi WSW 5.8 mph - N/A   Clear
8:58 AM 76.1 °F - 70.3 °F 82% 30.07 in 10.0 mi SW 8.1 mph - N/A   Clear
9:15 AM 78.8 °F - 69.8 °F 74% 30.05 in 10.0 mi WSW 5.8 mph - N/A   Light Drizzle
9:21 AM 78.8 °F - 69.8 °F 74% 30.05 in 10.0 mi Variable 6.9 mph - N/A   Clear
9:58 AM 80.4 °F 83.8 °F 70.2 °F 71% 30.06 in 10.0 mi South 8.1 mph - 0.00 in   Clear
10:58 AM 82.4 °F 86.3 °F 70.2 °F 66% 30.07 in 10.0 mi South 6.9 mph - N/A   Clear
11:58 AM 84.4 °F 89.7 °F 71.6 °F 65% 30.04 in 10.0 mi SE 10.4 mph - N/A   Clear
12:58 PM 85.3 °F 90.8 °F 71.4 °F 63% 30.03 in 10.0 mi SSE 8.1 mph - N/A   Clear
1:44 PM 86.0 °F 93.4 °F 73.4 °F 66% 30.01 in 10.0 mi SSE 9.2 mph - N/A Rain Light Rain
1:53 PM 86.0 °F 91.8 °F 71.6 °F 62% 30.01 in 10.0 mi SE 12.7 mph - N/A   Clear
1:58 PM 85.8 °F 91.8 °F 71.8 °F 63% 30.02 in 10.0 mi SE 11.5 mph - 0.00 in   Clear
2:58 PM 85.6 °F 92.2 °F 72.7 °F 65% 30.00 in 10.0 mi SE 12.7 mph - N/A   Partly Cloudy
3:58 PM 84.7 °F 91.4 °F 73.2 °F 68% 29.98 in 10.0 mi SSE 15.0 mph - N/A   Clear
4:58 PM 80.4 °F 85.6 °F 74.8 °F 83% 29.99 in 10.0 mi SSE 13.8 mph - N/A Thunderstorm Partly Cloudy
5:05 PM 78.8 °F - 75.2 °F 89% 29.98 in 10.0 mi South 13.8 mph - N/A Thunderstorm Thunderstorm
5:06 PM 78.8 °F - 75.2 °F 89% 29.98 in 10.0 mi SSW 15.0 mph - N/A Thunderstorm Thunderstorm
5:08 PM 78.8 °F - 73.4 °F 83% 29.99 in 10.0 mi WSW 21.9 mph 33.4 mph N/A Thunderstorm Thunderstorm
5:10 PM 78.8 °F - 71.6 °F 78% 29.98 in 10.0 mi WSW 21.9 mph 33.4 mph N/A Rain , Thunderstorm Light Thunderstorms and Rain
5:20 PM 73.4 °F - 69.8 °F 88% 30.00 in 1.5 mi SW 11.5 mph 32.2 mph N/A Rain , Thunderstorm Heavy Thunderstorms and Rain
5:25 PM 73.4 °F - 69.8 °F 88% 30.00 in 1.0 mi West 3.5 mph 27.6 mph N/A Rain , Thunderstorm Heavy Thunderstorms and Rain
5:30 PM 71.6 °F - 69.8 °F 94% 30.00 in 1.8 mi WNW 6.9 mph - N/A Rain , Thunderstorm Light Thunderstorms and Rain
5:35 PM 71.6 °F - 69.8 °F 94% 30.00 in 5.0 mi West 4.6 mph - N/A Rain , Thunderstorm Light Thunderstorms and Rain
5:47 PM 73.4 °F - 69.8 °F 88% 30.00 in 10.0 mi SW 3.5 mph - N/A Rain , Thunderstorm Light Rain
5:58 PM 73.2 °F - 70.5 °F 91% 30.00 in 10.0 mi South 2.3 mph - 0.30 in Rain , Thunderstorm Light Rain
5:59 PM 73.4 °F - 71.6 °F 94% 29.99 in 10.0 mi SW 1.2 mph - N/A Thunderstorm Mostly Cloudy
6:58 PM 75.9 °F - 70.5 °F 83% 30.01 in 10.0 mi SW 5.8 mph - 0.00 in   Mostly Cloudy
7:58 PM 75.9 °F - 72.7 °F 90% 30.00 in 3.0 mi SSW 2.3 mph - N/A   Mostly Cloudy
8:03 PM 75.2 °F - 73.4 °F 94% 29.99 in 2.5 mi South 2.3 mph - N/A   Mostly Cloudy
8:13 PM 77.0 °F - 73.4 °F 89% 30.00 in 3.0 mi South 5.8 mph - N/A   Mostly Cloudy
8:28 PM 75.2 °F - 73.4 °F 94% 30.01 in 8.0 mi South 6.9 mph - N/A   Overcast
8:33 PM 75.2 °F - 73.4 °F 94% 30.01 in 10.0 mi South 8.1 mph - N/A   Overcast
8:58 PM 75.0 °F - 71.8 °F 90% 30.03 in 10.0 mi South 10.4 mph - N/A   Mostly Cloudy
9:30 PM 75.2 °F - 71.6 °F 89% 30.03 in 10.0 mi SSW 6.9 mph - N/A Rain Light Rain
9:58 PM 74.8 °F - 71.8 °F 90% 30.04 in 10.0 mi SW 8.1 mph - 0.01 in Rain Light Rain
10:04 PM 75.2 °F - 71.6 °F 89% 30.03 in 10.0 mi SW 5.8 mph - N/A   Scattered Clouds
10:58 PM 72.9 °F - 70.2 °F 91% 30.04 in 10.0 mi South 4.6 mph - 0.00 in   Clear
11:58 PM 71.4 °F - 69.8 °F 95% 30.05 in 10.0 mi SW 2.3 mph - N/A   Clear